www.pogodaiklimat.ru

Погода и климат >> Архив погоды >> Франция >> Ним


ПОГОДА в Ниме

  • Прогноз погоды в Ниме
  • Монитор погоды в Ниме

АРХИВ ПОГОДЫ в Ниме

Время (UTC), дата Ветер
(напр.,м/с)
 
Видим.   Явления Облачность Т
(С)
Тd
(С)
f
(%)
Тe
(С)
Тes
(С)
Комфортность P
(гПа)
Po
(гПа)
Тmin
(С)
Tmax
(С)
R
(мм)
R24
(мм)
S
(см)
01 12.08 С 3-5
{6}
60 км н/о +20.6 +13.8 65 +23 +23 комфорт 1014.4 1002.2
02 12.08 С 3-4
{5}
60 км н/о +20.6 +13.5 64 +24 +24 комфорт 1014.0 1001.8
03 12.08 С 2
{8}
60 км 9/0 2000 м
[]
+20.1 +13.5 66 +23 +23 комфорт 1014.1 1001.9
04 12.08 С 3-4
{4}
60 км 10/10 2000 м
[]
+21.2 +13.1 60 +24 +24 комфорт 1014.4 1002.2
05 12.08 С 2 60 км 10/10
[]
+21.2 +13.1 60 +24 +24 комфорт 1014.4 1002.2
06 12.08 СВ 2
{8}
60 км н/о +21.0 +12.7 59 +24 +24 комфорт 1014.7 1002.5 +20.0 +26.1
07 12.08 С 4-6
{6}
25 км н/о +21.3 +12.7 58 +24 +24 комфорт 1014.1 1001.9
08 12.08 С 4-7
{8}
45 км н/о +22.3 +12.5 54 +25 +25 комфорт 1015.2 1003.0
09 12.08 С 3-6
{7}
40 км 8/0
[]
+23.8 +12.4 49 +26 +27 жарко 1015.3 1003.2
10 12.08 С 3-6
{6}
45 км 10/10
[]
+25.2 +11.4 42 +27 +27 жарко 1015.5 1003.4
11 12.08 С 2-4
{6}
60 км н/о +26.8 +11.7 39 +28 +28 жарко 1014.9 1002.9
12 12.08 С 3-4
{6}
50 км н/о +28.3 +10.9 34 +29 +29 жарко 1014.6 1002.7
13 12.08 С 3-7
{7}
60 км н/о +30.0 +11.5 32 +31 +31 жарко 1014.4 1002.5
14 12.08 С 2-5
{6}
50 км н/о +30.0 +11.0 31 +30 +30 жарко 1014.0 1002.2
15 12.08 СВ 3-5
{10}
50 км 9/0 2000 м
[]
+28.9 +11.9 35 +30 +31 жарко 1013.6 1001.7
16 12.08 СВ 3-4
{6}
55 км 8/8
[]
+28.0 +11.9 37 +29 +30 жарко 1013.9 1002.0
17 12.08 СВ 3-5
{5}
50 км н/о +27.1 +11.9 39 +28 +28 жарко 1014.4 1002.4
18 12.08 С 3
{9}
60 км н/о +26.1 +12.2 42 +28 +28 жарко 1015.0 1003.0 +20.5 +31.3
19 12.08 С 2-3
{4}
60 км н/о +23.8 +12.1 48 +26 +26 жарко 1016.2 1004.1
20 12.08 С 1-2
{3}
60 км н/о +22.1 +11.8 52 +24 +24 комфорт 1017.5 1005.3
21 12.08 СЗ 2-3
{4}
60 км н/о +22.1 +8.9 43 +23 +23 комфорт 1018.1 1005.9
22 12.08 СЗ 3-4
{5}
60 км н/о +21.7 +8.9 44 +23 +23 комфорт 1018.4 1006.2
23 12.08 СЗ 3-6
{6}
60 км н/о +21.3 +8.2 43 +22 +22 комфорт 1018.7 1006.4
00 13.08 СЗ 2-4
{5}
60 км н/о +20.3 +8.0 45 +22 +22 комфорт 1018.3 1006.0
01 13.08 СЗ 3-5
{5}
60 км н/о +19.7 +7.7 46 +21 +21 комфорт 1018.3 1006.0
02 13.08 СЗ 2-3
{4}
60 км н/о +18.8 +7.9 49 +20 +20 1018.7 1006.3
03 13.08 З 2-3
{4}
60 км н/о +17.9 +7.9 52 +19 +19 1018.7 1006.3
04 13.08 СЗ 2-4
{5}
60 км н/о +18.2 +8.2 52 +19 +19 1018.3 1005.9
05 13.08 С 3-4
{5}
55 км н/о +18.1 +8.4 53 +18 +18 1018.4 1006.0
06 13.08 С 3
{10}
50 км н/о +19.3 +8.9 51 +20 +20 1018.2 1005.9 +17.5 +26.1
07 13.08 С 3-5
{5}
50 км 9/9
[]
+20.4 +8.7 47 +22 +22 комфорт 1018.3 1006.0
08 13.08 С 4-7
{8}
60 км 10/10
[]
+22.0 +8.5 42 +23 +23 комфорт 1017.9 1005.7
09 13.08 С 5-8
{9}
50 км н/о +22.9 +8.2 39 +24 +24 комфорт 1017.4 1005.2
10 13.08 С 5-8
{8}
45 км н/о +25.1 +8.1 34 +25 +25 комфорт 1017.0 1004.9
11 13.08 С 4-7
{9}
40 км н/о +25.4 +7.0 31 +25 +25 комфорт 1016.7 1004.6
12 13.08 С 5-7
{8}
45 км н/о +26.5 +7.0 29 +26 +26 жарко 1016.3 1004.3
13 13.08 СЗ 4-7
{8}
29 км н/о +27.8 +6.0 25 +27 +27 жарко 1015.6 1003.6
14 13.08 С 4-7
{7}
29 км н/о +28.2 +5.1 23 +27 +27 жарко 1014.9 1003.0
15 13.08 С 4-6
{7}
29 км н/о +28.3 +5.2 23 +27 +27 жарко 1014.5 1002.6
16 13.08 С 8-7
{13}
30 км н/о +28.1 +6.2 25 +27 +27 жарко 1014.5 1002.6
17 13.08 С 4-7
{7}
35 км н/о +27.1 +5.9 26 +26 +26 жарко 1014.6 1002.6
18 13.08 СВ 3-5
{7}
45 км н/о +24.9 +8.0 34 +25 +25 комфорт 1015.1 1003.0 +19.4 +29.4
19 13.08 С 4-7
{7}
60 км н/о +23.5 +6.7 34 +24 +24 комфорт 1015.7 1003.6
20 13.08 С 4-6
{6}
60 км н/о +22.3 +6.9 37 +23 +23 комфорт 1016.7 1004.5
21 13.08 С 4-6
{7}
60 км н/о +21.6 +7.0 39 +22 +22 комфорт 1017.3 1005.1
22 13.08 С 3-5
{6}
60 км н/о +20.5 +7.1 42 +22 +22 комфорт 1017.8 1005.5
23 13.08 С 3-5
{6}
60 км н/о +20.2 +6.9 42 +21 +21 комфорт 1017.9 1005.6
00 14.08 СЗ 3-4
{6}
60 км н/о +19.9 +6.6 42 +21 +21 комфорт 1017.8 1005.5
01 14.08 СЗ 2-5
{6}
60 км н/о +18.9 +6.7 45 +20 +20 1017.7 1005.3
02 14.08 С 3-5
{6}
60 км н/о +19.0 +6.5 44 +20 +20 1017.3 1005.0
03 14.08 СЗ 2-3
{5}
60 км н/о +17.9 +6.4 47 +18 +18 1017.0 1004.6
04 14.08 СЗ 2-4
{4}
60 км 10/10
[]
+18.0 +6.2 46 +19 +19 1016.7 1004.3
05 14.08 СЗ 3-4
{6}
60 км н/о +18.2 +6.1 45 +19 +19 1016.8 1004.4
06 14.08 СЗ 3
{10}
45 км н/о +18.7 +6.5 45 +19 +19 1017.0 1004.6 +17.7 +24.8
07 14.08 СЗ 4-6
{6}
45 км н/о +21.2 +6.7 39 +22 +22 комфорт 1016.8 1004.6
08 14.08 С 5-8
{8}
40 км н/о +23.0 +6.7 35 +24 +24 комфорт 1016.9 1004.7
09 14.08 С 4-6
{7}
35 км н/о +25.3 +6.9 31 +25 +25 комфорт 1017.1 1005.0
10 14.08 С 4-6
{7}
35 км н/о +26.4 +5.9 27 +26 +26 жарко 1016.6 1004.6
11 14.08 С 3-6
{6}
35 км н/о +28.3 +5.2 23 +27 +27 жарко 1016.3 1004.3
12 14.08 С 3-5
{6}
40 км н/о +29.4 +4.1 20 +28 +28 жарко 1015.7 1003.8
13 14.08 С 3-5
{6}
35 км н/о +30.2 +3.2 18 +28 +28 жарко 1015.1 1003.2
14 14.08 С 2-4
{6}
45 км н/о +31.3 +4.1 18 +29 +29 жарко 1014.4 1002.6
15 14.08 СЗ 2-4
{11}
60 км н/о +31.4 +2.5 16 +29 +29 жарко 1014.0 1002.2
16 14.08 СЗ 2-3
{5}
40 км н/о +32.2 +3.2 16 +30 +30 жарко 1013.5 1001.7
17 14.08 Ю 2-3
{4}
50 км н/о +29.9 +8.9 27 +29 +29 жарко 1013.9 1002.0
18 14.08 ЮВ 2-2
{3}
60 км н/о +28.5 +9.7 31 +29 +29 жарко 1014.2 1002.3 +18.8 +32.3
19 14.08 СВ 2-3
{3}
60 км н/о +25.8 +6.4 29 +25 +25 комфорт 1014.8 1002.8
20 14.08 СВ 2-3
{3}
60 км н/о +23.8 +6.6 33 +24 +24 комфорт 1015.9 1003.8
21 14.08 С 2-2
{4}
60 км н/о +21.9 +6.5 37 +23 +23 комфорт 1016.2 1004.0
22 14.08 С 2-3
{3}
60 км н/о +21.3 +6.8 39 +22 +22 комфорт 1016.7 1004.5
23 14.08 С 1-2
{3}
60 км н/о +20.1 +7.1 43 +22 +22 комфорт 1017.0 1004.7
00 15.08 ЮЗ 1-2
{2}
60 км н/о +21.2 +7.1 40 +22 +22 комфорт 1017.1 1004.8
01 15.08 ЮЗ 1-1
{3}
60 км н/о +21.2 +7.1 40 +22 +22 комфорт 1016.8 1004.6
02 15.08 СЗ 1-2
{2}
60 км н/о +19.3 +7.7 47 +21 +21 комфорт 1017.1 1004.8
03 15.08 СЗ 1-1
{1}
45 км н/о +18.4 +7.8 50 +20 +20 1016.9 1004.5
04 15.08 З 2-2
{2}
60 км н/о +19.2 +8.2 49 +21 +21 комфорт 1016.7 1004.4
05 15.08 ЮЗ 2-2
{4}
60 км н/о +20.0 +9.3 50 +22 +22 комфорт 1016.8 1004.5
06 15.08 СЗ 1
{3}
45 км н/о +21.9 +10.4 48 +24 +24 комфорт 1016.9 1004.7 +17.6 +28.5
07 15.08 З 2-2
{3}
35 км н/о +23.5 +11.2 46 +25 +25 комфорт 1017.1 1005.0
08 15.08 З 1-2
{3}
60 км н/о +26.3 +12.0 41 +28 +28 жарко 1017.0 1005.0
09 15.08 З 2-3
{4}
60 км н/о +27.8 +12.6 39 +29 +29 жарко 1017.1 1005.1
10 15.08 СЗ 3-5
{5}
45 км н/о +28.8 +13.5 39 +30 +30 жарко 1016.8 1004.9
11 15.08 СЗ 3-6
{6}
60 км н/о +29.3 +13.5 38 +31 +31 жарко 1016.6 1004.7
12 15.08 СЗ 3-6
{8}
60 км н/о +29.9 +10.4 30 +30 +30 жарко 1016.2 1004.3
13 15.08 СЗ 4-7
{7}
45 км н/о +29.5 +11.1 32 +30 +30 жарко 1016.1 1004.2
14 15.08 СЗ 4-7
{7}
35 км н/о +29.8 +10.8 31 +30 +30 жарко 1015.7 1003.8
15 15.08 СЗ 3-6
{6}
50 км н/о +30.8 +10.7 29 +31 +31 жарко 1015.3 1003.5
16 15.08 СЗ 3-6
{7}
30 км н/о +29.8 +10.8 31 +30 +30 жарко 1015.2 1003.3
17 15.08 СЗ 3-5
{6}
55 км н/о +29.1 +11.6 34 +30 +30 жарко 1015.2 1003.3
18 15.08 СЗ 3-5
{7}
45 км н/о +27.6 +11.2 36 +28 +28 жарко 1015.8 1003.8 +21.7 +31.4
19 15.08 СЗ 3-6
{7}
60 км н/о +25.8 +10.4 38 +27 +27 жарко 1016.4 1004.4
20 15.08 С 2-3
{5}
60 км н/о +24.1 +10.7 43 +25 +25 комфорт 1017.7 1005.6
21 15.08 СЗ 2-3
{3}
60 км н/о +22.7 +10.8 47 +25 +25 комфорт 1018.1 1005.9
22 15.08 С 3-5
{5}
60 км н/о +22.3 +11.1 49 +24 +24 комфорт 1018.1 1005.9
23 15.08 СЗ 2-4
{5}
60 км н/о +21.3 +11.3 53 +23 +23 комфорт 1018.7 1006.4
00 16.08 С 3-5
{5}
60 км н/о +20.9 +10.4 51 +23 +23 комфорт 1018.3 1006.0
01 16.08 С 3-5
{5}
60 км н/о +21.0 +10.2 50 +23 +23 комфорт 1018.2 1005.9
02 16.08 СЗ 2-4
{5}
60 км н/о +20.2 +10.3 53 +22 +22 комфорт 1018.5 1006.2
03 16.08 С 3-5
{6}
60 км н/о +19.9 +10.3 54 +21 +21 комфорт 1017.9 1005.6
04 16.08 С 4-6
{6}
60 км н/о +19.7 +10.1 54 +21 +21 комфорт 1017.4 1005.1
05 16.08 С 3-6
{6}
55 км н/о +19.2 +10.2 56 +20 +20 1017.1 1004.8
06 16.08 С 3
{11}
35 км н/о +20.7 +10.2 51 +23 +23 комфорт 1017.4 1005.1 +19.0 +27.6
07 16.08 С 3-5
{6}
35 км н/о +22.5 +10.3 46 +24 +24 комфорт 1017.7 1005.5
08 16.08 С 3-6
{7}
35 км н/о +24.0 +9.9 41 +25 +25 комфорт 1017.7 1005.6
09 16.08 С 3-5
{5}
35 км н/о +25.6 +9.8 37 +26 +26 жарко 1017.6 1005.5
10 16.08 СЗ 2-4
{5}
45 км н/о +27.4 +9.7 33 +28 +28 жарко 1017.1 1005.1
11 16.08 СВ 1-3
{4}
45 км н/о +28.7 +8.9 29 +28 +28 жарко 1016.2 1004.3
12 16.08 СВ 2-3
{4}
50 км н/о +29.9 +7.1 24 +29 +29 жарко 1015.8 1003.9
13 16.08 СВ 1-3
{5}
60 км н/о +32.2 +7.8 22 +31 +31 жарко 1015.3 1003.5
14 16.08 СЗ 2-3
{3}
60 км н/о +32.7 +6.8 20 +31 +31 жарко 1014.9 1003.1
15 16.08 Ю 3-5
{6}
50 км н/о +30.6 +10.5 29 +31 +31 жарко 1014.5 1002.7
16 16.08 Ю 3-4
{5}
45 км н/о +29.2 +10.8 32 +30 +30 жарко 1014.5 1002.6
17 16.08 Ю 2-4
{5}
60 км н/о +27.1 +12.3 40 +29 +29 жарко 1014.5 1002.5
18 16.08 ЮЗ 2-4
{4}
40 км н/о +25.3 +12.5 45 +27 +27 жарко 1014.7 1002.7 +20.7 +32.8
19 16.08 ЮЗ 2-2
{4}
60 км н/о +23.0 +12.3 51 +26 +26 жарко 1015.3 1003.2
20 16.08 ЮЗ 2-3
{3}
60 км н/о +21.7 +13.6 60 +24 +24 комфорт 1015.8 1003.6
21 16.08 ЮЗ 2-3
{3}
55 км н/о +21.0 +15.1 69 +25 +25 комфорт 1016.1 1003.9
22 16.08 Ю 1-1
{3}
50 км н/о +19.6 +15.5 77 +23 +23 комфорт 1016.4 1004.1
23 16.08 ЮВ 2-2
{2}
45 км н/о +18.8 +15.5 81 +21 +21 комфорт 1016.3 1004.0
00 17.08 ЮВ 2-2
{2}
35 км н/о +18.3 +16.5 89 +20 +20 1016.2 1003.9
01 17.08 ЮВ 1-2
{2}
30 км н/о +18.1 +16.4 90 +19 +19 1016.3 1004.0
02 17.08 ЮВ 2-2
{2}
30 км н/о +17.8 +16.3 91 +19 +19 1016.0 1003.7
03 17.08 ЮВ 1-1
{2}
35 км н/о +17.7 +16.2 91 +19 +19 1016.2 1003.9
04 17.08 В 1-1
{1}
30 км н/о +17.2 +15.7 91 +19 +19 1016.2 1003.8
05 17.08 штиль 0-1
{1}
30 км н/о +16.8 +15.0 89 +17 +17 1016.4 1004.0
06 17.08 С 1
{2}
35 км н/о +17.4 +16.3 93 +19 +19 1016.3 1003.9 +15.5 +25.2
07 17.08 В 1-1
{1}
28 км н/о +21.5 +17.3 77 +26 +26 душно 1016.4 1004.2
08 17.08 Ю 1-2
{2}
45 км н/о +23.6 +17.1 67 +27 +27 жарко 1016.4 1004.3
09 17.08 Ю 2-3
{3}
17 км н/о +25.4 +16.8 59 +29 +29 душно 1016.6 1004.6
10 17.08 Ю 2-4
{4}
35 км н/о +26.0 +16.8 57 +30 +30 душно 1016.4 1004.4
11 17.08 Ю 2-4
{4}
28 км н/о +27.0 +18.3 59 +32 +32 очень
душно
1016.4 1004.4
12 17.08 Ю 3-5
{5}
28 км н/о +28.2 +18.6 56 +33 +33 очень
душно
1015.8 1003.9
13 17.08 Ю 3-5
{6}
30 км н/о +28.5 +19.4 58 +34 +34 очень
душно
1015.5 1003.6
14 17.08 Ю 3-5
{6}
30 км н/о +29.5 +19.2 54 +35 +35 очень
душно
1015.0 1003.2
15 17.08 Ю 3-5
{6}
40 км н/о +29.3 +16.5 46 +33 +33 душно 1014.8 1002.9
16 17.08 Ю 2-4
{4}
40 км н/о +29.0 +17.5 50 +33 +33 очень
душно
1014.5 1002.6
17 17.08 Ю 3-4
{5}
29 км н/о +27.1 +19.4 63 +33 +33 очень
душно
1014.4 1002.5
18 17.08 Ю 3-4
{5}
19 км н/о +25.0 +20.5 76 +31 +31 очень
душно
1014.6 1002.6 +17.5 +30.1
19 17.08 Ю 2-4
{4}
11 км 10/10 270 м
[]
+23.7 +21.6 88 +30 +30 очень
душно
1014.7 1002.7
20 17.08 Ю 2-3
{4}
16 км 9/9 210 м
[]
+23.1 +21.4 90 +31 +31 очень
душно
1015.4 1003.3
21 17.08 Ю 1-2
{2}
10 км н/о +22.8 +21.8 94 +31 +31 очень
душно
1015.4 1003.3
22 17.08 ЮВ 2 8000 м н/о +22.6 +21.6 94 +30 +30 очень
душно
1015.6 1003.5
23 17.08 ЮВ 2-3
{3}
4700 м дымка 9/9 90 м
[]
+22.1 +21.4 96 +29 +29 очень
душно
1015.7 1003.6
00 18.08 ЮВ 2-2
{3}
5000 м н/о +22.1 +21.4 96 +29 +29 очень
душно
1015.4 1003.3
01 18.08 ЮВ 2-3
{3}
4300 м дымка 10/10 180 м
[]
+21.9 +21.1 95 +28 +28 душно 1015.1 1003.0
02 18.08 ЮВ 2-3
{3}
4500 м дымка 10/10 180 м
[]
+21.5 +20.7 95 +27 +27 душно 1014.8 1002.7
03 18.08 ЮВ 2-3
{3}
4100 м дымка 10/10 200 м
[]
+21.7 +20.5 93 +27 +27 душно 1014.4 1002.3
04 18.08 ЮВ 2 2900 м дымка 10/10 90 м
[]
+21.6 +20.9 96 +27 +27 душно 1014.0 1001.9
05 18.08 ЮВ 2-3
{3}
5000 м 10/10 150 м
[]
+21.5 +20.5 94 +27 +27 душно 1013.9 1001.8
06 18.08 ЮВ 2
{5}
6000 м 10/10 200 м
[]
+21.4 +20.0 92 +27 +27 душно 1014.3 1002.2 +21.4 +25.0
07 18.08 ЮВ 3-4
{4}
10 км 10/10 210 м
[]
+22.6 +20.3 87 +29 +29 очень
душно
1014.5 1002.4
08 18.08 ЮВ 3-5
{5}
16 км 10/10 330 м
[]
+24.3 +21.0 82 +31 +31 очень
душно
1014.5 1002.5
09 18.08 Ю 4
{12}
35 км 9/9 300 м
[]
+26.0 +21.0 74 +33 +34 очень
душно
1014.7 1002.7
10 18.08 ЮВ 4 40 км 10/10 720 м
[]
+28.1 +20.4 63 +35 +35 очень
душно
1014.7 1002.8
11 18.08 ЮВ 4-7
{7}
45 км 8/8 800 м
[]
+28.2 +19.4 59 +34 +36 очень
душно
1014.6 1002.7
12 18.08 Ю 4-6
{6}
55 км н/о +29.3 +19.3 55 +35 +35 очень
душно
1014.5 1002.7
13 18.08 Ю 3-6
{6}
18 км н/о +28.9 +18.4 53 +34 +34 очень
душно
1014.6 1002.7
14 18.08 Ю 4-6
{7}
28 км н/о +28.8 +17.3 50 +33 +33 очень
душно
1014.4 1002.5
15 18.08 Ю 3-4
{6}
26 км н/о +28.7 +19.1 56 +34 +34 очень
душно
1014.0 1002.1
16 18.08 ЮЗ 3-5
{5}
26 км н/о +27.8 +17.3 53 +32 +32 душно 1014.1 1002.2
17 18.08 Ю 2-5
{5}
45 км н/о +26.4 +16.9 56 +30 +30 душно 1014.1 1002.1
18 18.08 Ю 3-4
{5}
45 км н/о +24.3 +18.5 70 +29 +29 душно 1013.8 1001.8 +21.4 +29.6
19 18.08 Ю 3-4
{4}
30 км н/о +22.4 +18.8 80 +28 +28 душно 1014.0 1001.9
20 18.08 Ю 2-2
{3}
20 км н/о +22.2 +20.1 88 +28 +28 душно 1015.3 1003.2
21 18.08 Ю 2-3
{3}
13 км н/о +21.5 +20.3 93 +27 +27 душно 1015.4 1003.2
22 18.08 ЮВ 1-2
{2}
10 км н/о +21.3 +20.3 94 +26 +26 душно 1015.9 1003.7
23 18.08 СВ 1-1
{1}
6000 м н/о +20.3 +19.5 95 +26 +26 душно 1016.0 1003.8
00 19.08 СЗ 1-1
{1}
7000 м н/о +20.0 +19.5 97 +25 +25 комфорт 1016.0 1003.8

 

Местоположение метеостанции Ним (Франция): широта 43.75 долгота 4.42 высота над уровнем моря 96 м.

В архиве по умолчанию представлена погода в Ниме за последнюю неделю. Архивные данные за месяц целиком и за предыдущие месяцы, начиная с января 2011 года, Вы можете получить, выбрав интересующий диапазон дат из раскрывающегося списка и нажав кнопку "Ввод!".


*Определитесь, кто Вы:
робот инопланетянин человек

Внимание! Время в таблицах - всемирное. Для получения местного времени необходимо прибавить поправку, которая равна 1 ч.

Смотрите также архив погоды в соседних городах и на ближайших метеорологических станциях:

Погода в Ним аэропорту (Франция) (13 км)
Погода в Монпелье (Франция) (41 км)
Погода в Авиньон (Франция) (42 км)
Погода в Истре (Франция) (48 км)
Погода в Оранже (Франция) (54 км)
Погода в Салон-де-Провансе (Франция) (57 км)
Погода в Карпентрасе (Франция) (62 км)
Погода на Ла Куроне (Франция) (69 км)
Погода в Мариньяне (Франция) (73 км)
Погода в Мон Эгуале (Франция) (79 км)

Пояснения к столбцам:

Ветер - указаны скорость ветра в м/с - средняя за 10 мин, порывы в срок и между сроками (в фигурных скобках) и направление, откуда дует ветер: С - северный, СВ - северо-восточный, В - восточный, ЮВ - юго-восточный, Ю - южный, ЮЗ - юго-западный, З - западный, СЗ - северо-западный.
Видимость - горизонтальная дальность видимости в метрах или километрах. При видимости от 1 до 10 км при отсутствии осадков обычно наблюдается дымка, при ухудшении видимости до 1 км и менее - туман. В сухую погоду видимость может ухудшаться дымом, пылью или мглою.
Явления - указаны атмосферные явления, наблюдавшиеся в срок или в последний час перед сроком; фигурными скобками обозначены явления, наблюдавшиеся между сроками (за 1-3 часа до срока); квадратными скобками обозначены град или гололедные отложения с указанием их диаметра в мм.
Облачность - указаны через наклонную черту общая и нижняя облачность в баллах и высота нижней границы облаков в метрах; квадратными скобками обозначены формы облаков: Ci - перистые, Cs - перисто-слоистые, Cc - перисто-кучевые, Ac - высококучевые, As - высокослоистые, Sc - слоисто-кучевые, Ns - слоисто-дождевые, Cu - кучевые, Cb - кучево-дождевые. Подробнее классификацию облаков см. в Атласе облаков (PDF).
T - Температура воздуха - температура, измеренная на высоте 2 м над землей.
Td - Температура точки росы - температура, при понижении до которой содержащийся в воздухе водяной пар достигнет насыщения.
f - Относительная влажность воздуха - влажноcть воздуха, измеренная на высоте 2 м над землей.
Te - Эффективная температура - температура, которую ощущает одетый по сезону человек в тени. Характеристика душности погоды. При расчете учитывается влияние влажности воздуха и скорости ветра на теплоощущения человека.
Tes - Эффективная температура на солнце - температура, которую ощущает человек, с поправкой на солнечный нагрев. Характеристика знойности погоды. Зависит от высоты солнца над горизонтом, облачности и скорости ветра. Ночью, в пасмурную погоду, а также при ветре 12 м/с и более поправка равна нулю.
P - Атмосферное давление - приведенное к уровню моря атмосферное давление.
Po - Атмосферное давление - измеренное на уровне метеостанции атмосферное давление.
Tmin - Минимальная температура - минимум температуры воздуха на высоте 2 м над землей.
Tmax - Максимальная температура - максимум температуры воздуха на высоте 2 м над землей.
R - Количество осадков - Количество выпавших осадков за период времени, мм. При наведении курсора мыши на число - период времени, за который выпало указанное количество осадков.
R24 - Количество осадков - Количество выпавших осадков за 24 часа, мм.
S - Снежный покров - Высота снежного покрова, см. При наведении курсора мыши на число - состояние снежного покрова и степень покрытия местности в баллах.